This is the latest recevied weather packets stored in our database for station/object KE8WMS. If no packets are shown the sender has not sent any weather packets the latest 10 day(s).
| Time | Temp. | Humidity | Pressure | Rain* | Wind** | Luminosity | Snow |
|---|---|---|---|---|---|---|---|
| 1777500318 | 8.33° C | 99% | 1007.1 hPa | 0 mm | - | 55 W/m² | - |
| 1777500014 | 8.33° C | 99% | 1006.9 hPa | 1.78 mm | - | 73 W/m² | - |
| 1777499710 | 8.33° C | 99% | 1007.1 hPa | 1.78 mm | - | 50 W/m² | - |
| 1777499407 | 8.33° C | 99% | 1007.1 hPa | 0 mm | - | 38 W/m² | - |
| 1777499106 | 8.33° C | 99% | 1007.3 hPa | 0 mm | - | 40 W/m² | - |
| 1777498802 | 8.33° C | 99% | 1007 hPa | 1.27 mm | - | 38 W/m² | - |
| 1777498498 | 8.33° C | 99% | 1006.9 hPa | 1.27 mm | - | 54 W/m² | - |
| 1777498194 | 8.33° C | 99% | 1006.7 hPa | 0 mm | - | 45 W/m² | - |
| 1777497893 | 8.33° C | 99% | 1006.8 hPa | 1.78 mm | - | 53 W/m² | - |
| 1777497588 | 8.33° C | 99% | 1006.8 hPa | 1.78 mm | - | 57 W/m² | - |
| 1777497285 | 8.33° C | 99% | 1006.9 hPa | 0 mm | - | 51 W/m² | - |
| 1777496981 | 8.33° C | 99% | 1006.6 hPa | 0 mm | - | 45 W/m² | - |
| 1777496678 | 8.33° C | 99% | 1006.9 hPa | 0 mm | - | 54 W/m² | - |
| 1777496374 | 8.33° C | 99% | 1006.5 hPa | 1.27 mm | - | 57 W/m² | - |
| 1777496071 | 8.33° C | 99% | 1006.8 hPa | 1.27 mm | - | 51 W/m² | - |
| 1777495767 | 8.33° C | 99% | 1006.8 hPa | 0 mm | - | 45 W/m² | - |
| 1777495463 | 8.33° C | 99% | 1006.7 hPa | 0 mm | - | 42 W/m² | - |
| 1777495160 | 8.33° C | 99% | 1006.7 hPa | 0 mm | - | 36 W/m² | - |
| 1777494857 | 8.33° C | 99% | 1006.8 hPa | 0 mm | - | 30 W/m² | - |
| 1777494554 | 8.33° C | 99% | 1006.3 hPa | 0 mm | - | 39 W/m² | - |
| 1777494252 | 8.33° C | 99% | 1006.4 hPa | 0 mm | - | 41 W/m² | - |
| 1777493948 | 8.33° C | 99% | 1006.5 hPa | 0 mm | - | 44 W/m² | - |
| 1777493646 | 8.33° C | 99% | 1006.2 hPa | 0 mm | - | 43 W/m² | - |
| 1777493343 | 8.33° C | 99% | 1006.3 hPa | 0 mm | - | 57 W/m² | - |
| 1777493040 | 8.33° C | 99% | 1006.4 hPa | 0 mm | - | 57 W/m² | - |
* Rain latest hour (hover to see other rain measurements)
** Current wind speed in m/s (hover to see current wind gust speed)